Weather History for Pine River, MN

Change the Weather History Date:

Friday, March 7, 2014

  Actual Average Record
Temperature  
Mean Temperature 18 °F -  
Max Temperature 26 °F 27 °F 37 °F (2006)
Min Temperature 8 °F 8 °F -25 °F (2008)
Degree Days  
Heating Degree Days 47    
Moisture  
Dew Point 18 °F    
Average Humidity 84    
Maximum Humidity 100    
Minimum Humidity 64    
Precipitation  
Precipitation 0.00 in - - ()
Sea Level Pressure  
Sea Level Pressure 29.97 in    
Wind  
Wind Speed 7 mph (NNW)    
Max Wind Speed 20 mph    
Max Gust Speed 26 mph    
Visibility 7 miles    
Events Snow    
Averages and records for this station are not official NWS values.
T = Trace of Precipitation, MM = Missing Value Source: NWS Daily Summary

Daily Weather History Graph

Daily Weather History Graph

Search for Another Location

Airport:

Trip Planner

Search our weather history database for the weather conditions in past years. The results will help you decide how hot, cold, wet, or windy it might be!

Date:

Astronomy

Mar. 07, 2014 Rise Set
Actual Time 6:45 AM CST 6:12 PM CST
Civil Twilight 6:15 AM CST 6:42 PM CST
Nautical Twilight 5:40 AM CST 7:17 PM CST
Astronomical Twilight 5:05 AM CST 7:52 PM CST
Moon 10:16 AM CST (3/7) 12:39 AM CST (3/7)
Length of Visible Light 12h 26m
Length of Day
11h 26m
Waxing Crescent, 42% of the Moon is Illuminated
Mar 7
Waxing Crescent
Mar 8
First Quarter
Mar 16
Full
Mar 23
Last Quarter
Mar 30
New

Hourly Weather History & Observations

Time (CST) Temp. Windchill Dew Point Humidity Pressure Visibility Wind Dir Wind Speed Gust Speed Precip Events Conditions
12:12 AM 24.8 °F 20.5 °F 24.8 °F 100% 29.77 in 1.8 mi South 3.5 mph - N/A   Overcast
12:33 AM 24.8 °F 17.9 °F 24.8 °F 100% 29.75 in 1.8 mi SSE 5.8 mph - N/A   Overcast
12:52 AM 24.8 °F 17.9 °F 24.8 °F 100% 29.74 in 1.8 mi South 5.8 mph - N/A   Overcast
1:12 AM 24.8 °F - 24.8 °F 100% 29.76 in 1.5 mi Calm Calm - N/A   Overcast
1:32 AM 24.8 °F 20.5 °F 24.8 °F 100% 29.76 in 1.5 mi South 3.5 mph - N/A   Overcast
1:52 AM 26.6 °F 22.6 °F 26.6 °F 100% 29.76 in 1.8 mi South 3.5 mph - N/A   Overcast
2:13 AM 26.6 °F 21.2 °F 26.6 °F 100% 29.75 in 1.8 mi SSE 4.6 mph - N/A   Overcast
2:32 AM 26.6 °F 22.6 °F 26.6 °F 100% 29.75 in 2.0 mi South 3.5 mph - N/A   Overcast
2:52 AM 26.6 °F - 26.6 °F 100% 29.76 in 2.0 mi Calm Calm - N/A   Overcast
3:13 AM 26.6 °F 22.6 °F 24.8 °F 93% 29.76 in 2.0 mi South 3.5 mph - N/A   Overcast
3:33 AM 26.6 °F 21.2 °F 26.6 °F 100% 29.76 in 2.0 mi SSE 4.6 mph - N/A   Overcast
3:53 AM 26.6 °F 22.6 °F 26.6 °F 100% 29.75 in 1.8 mi SE 3.5 mph - N/A   Overcast
4:13 AM 24.8 °F 20.5 °F 24.8 °F 100% 29.77 in 1.8 mi SSE 3.5 mph - N/A   Overcast
4:31 AM 24.8 °F 20.5 °F 24.8 °F 100% 29.77 in 1.5 mi SSE 3.5 mph - N/A   Overcast
4:51 AM 24.8 °F - 24.8 °F 100% 29.78 in 1.2 mi Calm Calm - N/A   Overcast
5:13 AM 24.8 °F - 24.8 °F 100% 29.78 in 0.8 mi Calm Calm - N/A   Overcast
5:32 AM 24.8 °F - 24.8 °F 100% 29.78 in 0.8 mi Calm Calm - N/A   Overcast
5:52 AM 24.8 °F - 24.8 °F 100% 29.79 in 0.8 mi Calm Calm - N/A   Overcast
6:13 AM 26.6 °F - 26.6 °F 100% 29.79 in 0.8 mi Calm Calm - N/A   Overcast
6:33 AM 26.6 °F 17.5 °F 26.6 °F 100% 29.80 in 1.8 mi NW 9.2 mph - N/A   Overcast
6:52 AM 26.6 °F 16.2 °F 26.6 °F 100% 29.82 in 4.0 mi NW 11.5 mph 19.6 mph N/A   Overcast
7:12 AM 26.6 °F 16.8 °F 24.8 °F 93% 29.83 in 4.0 mi NW 10.4 mph 17.3 mph N/A   Overcast
7:32 AM 24.8 °F 13.4 °F 21.2 °F 86% 29.85 in 4.0 mi NW 12.7 mph 18.4 mph N/A   Overcast
7:53 AM 24.8 °F 14.6 °F 21.2 °F 86% 29.86 in 4.0 mi NW 10.4 mph - N/A   Overcast
8:13 AM 24.8 °F 14.6 °F 21.2 °F 86% 29.87 in 5.0 mi NW 10.4 mph 19.6 mph N/A   Overcast
8:33 AM 23.0 °F 12.4 °F 19.4 °F 86% 29.88 in 5.0 mi NW 10.4 mph 17.3 mph N/A   Overcast
8:52 AM 23.0 °F 10.6 °F 19.4 °F 86% 29.88 in 5.0 mi NW 13.8 mph 21.9 mph N/A   Overcast
9:13 AM 21.2 °F 8.9 °F 19.4 °F 93% 29.89 in 5.0 mi NW 12.7 mph 19.6 mph N/A   Overcast
9:32 AM 21.2 °F 10.1 °F 19.4 °F 93% 29.90 in 7.0 mi NW 10.4 mph 20.7 mph N/A   Overcast
9:53 AM 21.2 °F 9.5 °F 19.4 °F 93% 29.91 in 7.0 mi NW 11.5 mph 20.7 mph N/A   Overcast
10:12 AM 21.2 °F 7.8 °F 19.4 °F 93% 29.92 in 7.0 mi NW 15.0 mph 20.7 mph N/A   Overcast
10:33 AM 21.2 °F 7.3 °F 19.4 °F 93% 29.93 in 7.0 mi NW 16.1 mph - N/A   Overcast
10:52 AM 21.2 °F 8.3 °F 17.6 °F 86% 29.94 in 10.0 mi NNW 13.8 mph 23.0 mph N/A   Overcast
11:13 AM 21.2 °F 9.5 °F 17.6 °F 86% 29.95 in 10.0 mi NW 11.5 mph 19.6 mph N/A   Overcast
11:32 AM 21.2 °F 8.9 °F 17.6 °F 86% 29.95 in 10.0 mi NNW 12.7 mph 18.4 mph N/A   Overcast
11:53 AM 23.0 °F 11.1 °F 17.6 °F 80% 29.96 in 10.0 mi NNW 12.7 mph 20.7 mph N/A   Overcast
12:13 PM 23.0 °F 12.4 °F 17.6 °F 80% 29.97 in 10.0 mi NNW 10.4 mph 20.7 mph N/A   Overcast
12:33 PM 24.8 °F 12.4 °F 17.6 °F 74% 29.98 in 10.0 mi NNW 15.0 mph 23.0 mph N/A   Overcast
12:53 PM 23.0 °F 10.1 °F 17.6 °F 80% 29.98 in 10.0 mi North 15.0 mph 26.5 mph N/A   Overcast
1:13 PM 24.8 °F 11.1 °F 17.6 °F 74% 29.98 in 10.0 mi North 18.4 mph 21.9 mph N/A   Overcast
1:32 PM 24.8 °F 12.9 °F 17.6 °F 74% 30.00 in 10.0 mi North 13.8 mph 17.3 mph N/A   Overcast
1:53 PM 24.8 °F 11.1 °F 17.6 °F 74% 30.01 in 10.0 mi North 18.4 mph 26.5 mph N/A   Overcast
2:12 PM 24.8 °F 11.1 °F 17.6 °F 74% 30.01 in 10.0 mi North 18.4 mph 23.0 mph N/A   Overcast
2:32 PM 24.8 °F 12.9 °F 17.6 °F 74% 30.03 in 10.0 mi North 13.8 mph - N/A   Overcast
2:53 PM 24.8 °F 10.7 °F 17.6 °F 74% 30.03 in 10.0 mi North 19.6 mph 24.2 mph N/A   Overcast
3:12 PM 24.8 °F 10.7 °F 15.8 °F 69% 30.04 in 10.0 mi North 19.6 mph 23.0 mph N/A   Overcast
3:32 PM 24.8 °F 11.1 °F 15.8 °F 69% 30.05 in 10.0 mi North 18.4 mph 25.3 mph N/A   Overcast
3:52 PM 24.8 °F 14.6 °F 17.6 °F 74% 30.07 in 10.0 mi North 10.4 mph 19.6 mph N/A   Overcast
4:13 PM 24.8 °F 12.9 °F 15.8 °F 69% 30.07 in 10.0 mi NNW 13.8 mph 24.2 mph N/A Snow Light Snow
4:31 PM 24.8 °F 15.3 °F 15.8 °F 69% 30.08 in 10.0 mi NNW 9.2 mph - N/A   Overcast
4:53 PM 24.8 °F 11.5 °F 15.8 °F 69% 30.09 in 10.0 mi North 17.3 mph 23.0 mph N/A   Overcast
5:12 PM 24.8 °F 15.3 °F 15.8 °F 69% 30.11 in 10.0 mi North 9.2 mph 18.4 mph N/A   Overcast
5:32 PM 24.8 °F 14.0 °F 15.8 °F 69% 30.11 in 10.0 mi North 11.5 mph - N/A   Overcast
5:52 PM 24.8 °F 15.3 °F 14.0 °F 64% 30.12 in 10.0 mi North 9.2 mph - N/A   Overcast
6:13 PM 23.0 °F 12.4 °F 14.0 °F 68% 30.14 in 10.0 mi NNW 10.4 mph 17.3 mph N/A   Overcast
6:32 PM 23.0 °F 11.7 °F 14.0 °F 68% 30.15 in 10.0 mi NNW 11.5 mph - N/A   Overcast
6:53 PM 21.2 °F 8.3 °F 12.2 °F 68% 30.17 in 10.0 mi North 13.8 mph 18.4 mph N/A   Overcast
7:13 PM 21.2 °F 9.5 °F 12.2 °F 68% 30.17 in 10.0 mi North 11.5 mph - N/A   Overcast
7:32 PM 21.2 °F 8.3 °F 12.2 °F 68% 30.18 in 10.0 mi North 13.8 mph - N/A   Overcast
7:53 PM 19.4 °F 7.9 °F 12.2 °F 74% 30.19 in 10.0 mi North 10.4 mph - N/A   Overcast
8:12 PM 19.4 °F 8.6 °F 10.4 °F 68% 30.20 in 10.0 mi North 9.2 mph - N/A   Overcast
8:33 PM 19.4 °F 9.5 °F 10.4 °F 68% 30.21 in 10.0 mi NNW 8.1 mph - N/A   Overcast
8:52 PM 17.6 °F 6.4 °F 10.4 °F 73% 30.22 in 10.0 mi North 9.2 mph - N/A   Overcast
9:13 PM 17.6 °F 8.2 °F 10.4 °F 73% 30.22 in 10.0 mi North 6.9 mph - N/A Snow Light Snow
9:33 PM 15.8 °F 7.2 °F 10.4 °F 79% 30.22 in 10.0 mi NNW 5.8 mph - N/A   Scattered Clouds
9:53 PM 15.8 °F 6.1 °F 8.6 °F 73% 30.22 in 10.0 mi NNW 6.9 mph - N/A   Clear
10:13 PM 15.8 °F 7.2 °F 8.6 °F 73% 30.22 in 10.0 mi NNW 5.8 mph - N/A   Clear
10:32 PM 15.8 °F 7.2 °F 8.6 °F 73% 30.23 in 10.0 mi NNW 5.8 mph - N/A   Clear
10:53 PM 14.0 °F 5.1 °F 8.6 °F 79% 30.24 in 10.0 mi NNW 5.8 mph - N/A   Clear
11:12 PM 12.2 °F 6.1 °F 8.6 °F 85% 30.24 in 10.0 mi NNW 3.5 mph - N/A   Clear
11:33 PM 10.4 °F 4.0 °F 6.8 °F 85% 30.25 in 10.0 mi North 3.5 mph - N/A   Clear
11:53 PM 8.6 °F - 5.0 °F 85% 30.25 in 10.0 mi Calm Calm - N/A   Clear